This is the latest recevied weather packets stored in our database for station/object SV9TNF-56. If no packets are shown the sender has not sent any weather packets the latest 10 day(s).
| Time | Temp. | Humidity | Pressure | Rain* | Wind** | Luminosity | Snow |
|---|---|---|---|---|---|---|---|
| 1788395039 | 23.89° C | 75% | 1010.2 hPa | 0 mm | 11.18 m/s, 290° | - | - |
| 1788394739 | 24.44° C | 75% | 1010.2 hPa | 0 mm | 12.07 m/s, 336° | - | - |
| 1788394439 | 24.44° C | 74% | 1010.2 hPa | 0 mm | 13.86 m/s, 295° | - | - |
| 1788394139 | 24.44° C | 73% | 1010.2 hPa | 0 mm | 15.2 m/s, 258° | - | - |
| 1788393839 | 23.89° C | 71% | 1010.2 hPa | 0 mm | 12.96 m/s, 275° | - | - |
| 1788393539 | 23.89° C | 72% | 1010.2 hPa | 0 mm | 16.99 m/s, 284° | - | - |
| 1788393238 | 24.44° C | 73% | 1010.2 hPa | 0 mm | 16.99 m/s, 257° | - | - |
| 1788392938 | 24.44° C | 71% | 1010.2 hPa | 0 mm | 12.07 m/s, 281° | - | - |
| 1788392639 | 24.44° C | 72% | 1010.2 hPa | 0 mm | 16.99 m/s, 294° | - | - |
| 1788392338 | 24.44° C | 72% | 1010.2 hPa | 0 mm | 16.09 m/s, 289° | - | - |
| 1788392038 | 24.44° C | 70% | 1010.2 hPa | 0 mm | 13.86 m/s, 254° | - | - |
| 1788391738 | 24.44° C | 70% | 1010.2 hPa | 0 mm | 13.86 m/s, 265° | - | - |
| 1788391438 | 24.44° C | 70% | 1010.2 hPa | 0 mm | 16.99 m/s, 270° | - | - |
| 1788391138 | 24.44° C | 70% | 1010.5 hPa | 0 mm | 16.99 m/s, 265° | - | - |
| 1788390838 | 24.44° C | 70% | 1010.5 hPa | 0 mm | 15.2 m/s, 270° | - | - |
| 1788390538 | 24.44° C | 69% | 1010.5 hPa | 0 mm | 8.49 m/s, 275° | - | - |
| 1788390238 | 24.44° C | 68% | 1010.5 hPa | 0 mm | 14.75 m/s, 258° | - | - |
| 1788389937 | 24.44° C | 67% | 1010.5 hPa | 0 mm | 12.07 m/s, 272° | - | - |
| 1788389637 | 24.44° C | 67% | 1010.5 hPa | 0 mm | 13.41 m/s, 296° | - | - |
| 1788389337 | 24.44° C | 66% | 1010.5 hPa | 0 mm | 12.07 m/s, 253° | - | - |
| 1788389037 | 24.44° C | 64% | 1010.5 hPa | 0 mm | 13.41 m/s, 282° | - | - |
| 1788388737 | 24.44° C | 68% | 1010.5 hPa | 0 mm | 8.49 m/s, 272° | - | - |
| 1788388437 | 24.44° C | 68% | 1010.5 hPa | 0 mm | 6.26 m/s, 282° | - | - |
| 1788388137 | 24.44° C | 67% | 1010.5 hPa | 0 mm | 12.52 m/s, 277° | - | - |
| 1788387837 | 25° C | 67% | 1010.8 hPa | 0 mm | 8.05 m/s, 300° | - | - |
* Rain latest hour (hover to see other rain measurements)
** Current wind speed in m/s (hover to see current wind gust speed)